STARLINK-5367 (55501 NORAD) Tracking and Keplerian Element Data

This shows tracking and keplerian element data for the satellite.

Feedback or suggestion? Click here.




ElementValue
Catalog55501
NameSTARLINK-5367
Epoch Orbit130
Epoch Day84.91667824
Epoch Year2023
RAAN85.7214
Inclination43.0005
Eccentricity0.0001252
Argument of Perigee263.341
Mean Anonmoly79.1297
Mean Motion15.04453518
Decay Rate0.00036954
L11 55501U 23015BE 23084.91667824 .00036954 00000+0 26002-2 0 9995
L22 55501 43.0005 85.7214 0001252 263.3410 79.1297 15.04453518 1301



Live tracking and technical data element details for STARLINK-5367 (NORAD 55501). STARLINK-5367 can be tracked NOW for your location showing map with azimuth and elevation plus other details from your city location.







IsCatalogInMostPopularTable: catalog: 55501, numindb: -1

Insert: records affected: 1


GetName: 55501 STARLINK-5367

Hit Count: inserted at: Tue, 28 Mar 2023 01:57:49 GMT